HULIANWANG DIGUI 5A

Last updated on Thu Aug 14 2025 00:02:07 GMT+0000 (Coordinated Universal Time)

1 64956U 25159A 25224.71157029 .00000100 00000+0 10584-3 0 9990 2 64956 86.4962 27.0607 0001483 97.6718 262.4607 13.63823815 2215
UTC large
Height (km)
Speed (km/s)
/
Latitude / Longitude
Inclination (degrees)
Orbital Period (minutes)
Azimuth
Elevation
Range (km)
Doppler Factor

Next 0 passes for location: London (51.5072 / 0.1276)

Sorry there are no passes over London.
HULIANWANG DIGUI 5A